Year,Month,Day,Hour,Minute,Value (Times are PST for temperature in C)
2014,04,30,00,00,11.90
2014,04,30,00,01,11.90
2014,04,30,00,02,11.90
2014,04,30,00,03,11.80
2014,04,30,00,04,11.80
2014,04,30,00,05,11.80
2014,04,30,00,06,11.80
2014,04,30,00,07,11.80
2014,04,30,00,08,11.80
2014,04,30,00,09,11.70
2014,04,30,00,10,11.70
2014,04,30,00,11,11.70
2014,04,30,00,12,11.70
2014,04,30,00,13,11.70
2014,04,30,00,14,11.70
2014,04,30,00,15,11.70
2014,04,30,00,16,11.70
2014,04,30,00,17,11.70
2014,04,30,00,18,11.70
2014,04,30,00,19,11.70
2014,04,30,00,20,11.70
2014,04,30,00,21,11.70
2014,04,30,00,22,11.70
2014,04,30,00,23,11.70
2014,04,30,00,24,11.70
2014,04,30,00,25,11.60
2014,04,30,00,26,11.60
2014,04,30,00,27,11.60
2014,04,30,00,28,11.60
2014,04,30,00,29,11.40
2014,04,30,00,30,11.40
2014,04,30,00,31,11.40
2014,04,30,00,32,11.40
2014,04,30,00,33,11.40
2014,04,30,00,34,11.40
2014,04,30,00,35,11.40
2014,04,30,00,36,11.40
2014,04,30,00,37,11.40
2014,04,30,00,38,11.40
2014,04,30,00,39,11.40
2014,04,30,00,40,11.40
2014,04,30,00,41,11.40
2014,04,30,00,42,11.40
2014,04,30,00,43,11.40
2014,04,30,00,44,11.40
2014,04,30,00,45,11.40
2014,04,30,00,46,11.40
2014,04,30,00,47,11.50
2014,04,30,00,48,11.50
2014,04,30,00,49,11.40
2014,04,30,00,50,11.40
2014,04,30,00,51,11.40
2014,04,30,00,52,11.40
2014,04,30,00,53,11.40
2014,04,30,00,54,11.40
2014,04,30,00,55,11.40
2014,04,30,00,56,11.40
2014,04,30,00,57,11.40
2014,04,30,00,58,11.40
2014,04,30,00,59,11.50
2014,04,30,01,00,11.60
2014,04,30,01,01,11.60
2014,04,30,01,02,11.60
2014,04,30,01,03,11.60
2014,04,30,01,04,11.60
2014,04,30,01,05,11.80
2014,04,30,01,06,11.80
2014,04,30,01,07,11.80
2014,04,30,01,08,11.80
2014,04,30,01,09,11.80
2014,04,30,01,10,11.90
2014,04,30,01,11,11.90
2014,04,30,01,12,12.00
2014,04,30,01,13,12.00
2014,04,30,01,14,12.10
2014,04,30,01,15,12.10
2014,04,30,01,16,12.20
2014,04,30,01,17,12.30
2014,04,30,01,18,12.30
2014,04,30,01,19,12.40
2014,04,30,01,20,12.50
2014,04,30,01,21,12.60
2014,04,30,01,22,12.70
2014,04,30,01,23,12.70
2014,04,30,01,24,12.80
2014,04,30,01,25,12.80
2014,04,30,01,26,12.80
2014,04,30,01,27,12.90
2014,04,30,01,28,12.90
2014,04,30,01,29,13.00
2014,04,30,01,30,13.00
2014,04,30,01,31,13.10
2014,04,30,01,32,13.10
2014,04,30,01,33,13.10
2014,04,30,01,34,13.10
2014,04,30,01,35,13.20
2014,04,30,01,36,13.20
2014,04,30,01,37,13.20
2014,04,30,01,38,13.20
2014,04,30,01,39,13.20
2014,04,30,01,40,13.20
2014,04,30,01,41,13.20
2014,04,30,01,42,13.20
2014,04,30,01,43,13.20
2014,04,30,01,44,13.20
2014,04,30,01,45,13.20
2014,04,30,01,46,13.10
2014,04,30,01,47,13.10
2014,04,30,01,48,13.10
2014,04,30,01,49,13.10
2014,04,30,01,50,13.10
2014,04,30,01,51,13.10
2014,04,30,01,52,13.10
2014,04,30,01,53,13.10
2014,04,30,01,54,13.10
2014,04,30,01,55,13.10
2014,04,30,01,56,13.10
2014,04,30,01,57,13.10
2014,04,30,01,58,13.10
2014,04,30,01,59,13.10
2014,04,30,02,00,13.20
2014,04,30,02,01,13.20
2014,04,30,02,02,13.20
2014,04,30,02,03,13.20
2014,04,30,02,04,13.20
2014,04,30,02,05,13.20
2014,04,30,02,06,13.20
2014,04,30,02,07,13.20
2014,04,30,02,08,13.20
2014,04,30,02,09,13.20
2014,04,30,02,10,13.20
2014,04,30,02,11,13.20
2014,04,30,02,12,13.20
2014,04,30,02,13,13.20
2014,04,30,02,14,13.30
2014,04,30,02,15,13.30
2014,04,30,02,16,13.30
2014,04,30,02,17,13.30
2014,04,30,02,18,13.30
2014,04,30,02,19,13.40
2014,04,30,02,20,13.50
2014,04,30,02,21,13.50
2014,04,30,02,22,13.50
2014,04,30,02,23,13.60
2014,04,30,02,24,13.60
2014,04,30,02,25,13.60
2014,04,30,02,26,13.70
2014,04,30,02,27,13.70
2014,04,30,02,28,13.70
2014,04,30,02,29,13.70
2014,04,30,02,30,13.70
2014,04,30,02,31,13.70
2014,04,30,02,32,13.70
2014,04,30,02,33,13.70
2014,04,30,02,34,13.70
2014,04,30,02,35,13.70
2014,04,30,02,36,13.70
2014,04,30,02,37,13.70
2014,04,30,02,38,13.70
2014,04,30,02,39,13.70
2014,04,30,02,40,13.70
2014,04,30,02,41,13.80
2014,04,30,02,42,13.80
2014,04,30,02,43,13.80
2014,04,30,02,44,13.80
2014,04,30,02,45,13.80
2014,04,30,02,46,13.90
2014,04,30,02,47,13.90
2014,04,30,02,48,13.90
2014,04,30,02,49,13.90
2014,04,30,02,50,13.90
2014,04,30,02,51,13.90
2014,04,30,02,52,13.90
2014,04,30,02,53,13.90
2014,04,30,02,54,13.90
2014,04,30,02,55,13.90
2014,04,30,02,56,13.90
2014,04,30,02,57,13.90
2014,04,30,02,58,13.80
2014,04,30,02,59,13.80
2014,04,30,03,00,13.80
2014,04,30,03,01,13.80
2014,04,30,03,02,13.80
2014,04,30,03,03,13.80
2014,04,30,03,04,13.70
2014,04,30,03,05,13.70
2014,04,30,03,06,13.70
2014,04,30,03,07,13.70
2014,04,30,03,08,13.70
2014,04,30,03,09,13.70
2014,04,30,03,10,13.60
2014,04,30,03,11,13.60
2014,04,30,03,12,13.60
2014,04,30,03,13,13.60
2014,04,30,03,14,13.50
2014,04,30,03,15,13.50
2014,04,30,03,16,13.50
2014,04,30,03,17,13.50
2014,04,30,03,18,13.40
2014,04,30,03,19,13.40
2014,04,30,03,20,13.40
2014,04,30,03,21,13.30
2014,04,30,03,22,13.30
2014,04,30,03,23,13.30
2014,04,30,03,24,13.30
2014,04,30,03,25,13.30
2014,04,30,03,26,13.30
2014,04,30,03,27,13.30
2014,04,30,03,28,13.30
2014,04,30,03,29,13.30
2014,04,30,03,30,13.30
2014,04,30,03,31,13.30
2014,04,30,03,32,13.30
2014,04,30,03,33,13.30
2014,04,30,03,34,13.30
2014,04,30,03,35,13.30
2014,04,30,03,36,13.30
2014,04,30,03,37,13.30
2014,04,30,03,38,13.30
2014,04,30,03,39,13.20
2014,04,30,03,40,13.20
2014,04,30,03,41,13.20
2014,04,30,03,42,13.20
2014,04,30,03,43,13.20
2014,04,30,03,44,13.20
2014,04,30,03,45,13.20
2014,04,30,03,46,13.20
2014,04,30,03,47,13.20
2014,04,30,03,48,13.20
2014,04,30,03,49,13.20
2014,04,30,03,50,13.20
2014,04,30,03,51,13.20
2014,04,30,03,52,13.20
2014,04,30,03,53,13.20
2014,04,30,03,54,13.20
2014,04,30,03,55,13.20
2014,04,30,03,56,13.20
2014,04,30,03,57,13.20
2014,04,30,03,58,13.20
2014,04,30,03,59,13.20
2014,04,30,04,00,13.20
2014,04,30,04,01,13.20
2014,04,30,04,02,13.20
2014,04,30,04,03,13.20
2014,04,30,04,04,13.20
2014,04,30,04,05,13.20
2014,04,30,04,06,13.20
2014,04,30,04,07,13.20
2014,04,30,04,08,13.20
2014,04,30,04,09,13.20
2014,04,30,04,10,13.30
2014,04,30,04,11,13.30
2014,04,30,04,12,13.30
2014,04,30,04,13,13.30
2014,04,30,04,14,13.30
2014,04,30,04,15,13.30
2014,04,30,04,16,13.30
2014,04,30,04,17,13.30
2014,04,30,04,18,13.30
2014,04,30,04,19,13.30
2014,04,30,04,20,13.20
2014,04,30,04,21,13.20
2014,04,30,04,22,13.20
2014,04,30,04,23,13.20
2014,04,30,04,24,13.20
2014,04,30,04,25,13.20
2014,04,30,04,26,13.20
2014,04,30,04,27,13.20
2014,04,30,04,28,13.20
2014,04,30,04,29,13.20
2014,04,30,04,30,13.20
2014,04,30,04,31,13.20
2014,04,30,04,32,13.20
2014,04,30,04,33,13.20
2014,04,30,04,34,13.30
2014,04,30,04,35,13.30
2014,04,30,04,36,13.30
2014,04,30,04,37,13.30
2014,04,30,04,38,13.30
2014,04,30,04,39,13.30
2014,04,30,04,40,13.30
2014,04,30,04,41,13.30
2014,04,30,04,42,13.30
2014,04,30,04,43,13.30
2014,04,30,04,44,13.20
2014,04,30,04,45,13.20
2014,04,30,04,46,13.20
2014,04,30,04,47,13.20
2014,04,30,04,48,13.10
2014,04,30,04,49,13.10
2014,04,30,04,50,13.10
2014,04,30,04,51,13.10
2014,04,30,04,52,13.00
2014,04,30,04,53,13.00
2014,04,30,04,54,13.00
2014,04,30,04,55,13.00
2014,04,30,04,56,12.90
2014,04,30,04,57,12.90
2014,04,30,04,58,12.90
2014,04,30,04,59,12.90
2014,04,30,05,00,12.80
2014,04,30,05,01,12.80
2014,04,30,05,02,12.80
2014,04,30,05,03,12.80
2014,04,30,05,04,12.80
2014,04,30,05,05,12.80
2014,04,30,05,06,12.80
2014,04,30,05,07,12.80
2014,04,30,05,08,12.80
2014,04,30,05,09,12.80
2014,04,30,05,10,12.70
2014,04,30,05,11,12.70
2014,04,30,05,12,12.70
2014,04,30,05,13,12.70
2014,04,30,05,14,12.70
2014,04,30,05,15,12.70
2014,04,30,05,16,12.70
2014,04,30,05,17,12.70
2014,04,30,05,18,12.70
2014,04,30,05,19,12.70
2014,04,30,05,20,12.70
2014,04,30,05,21,12.60
2014,04,30,05,22,12.60
2014,04,30,05,23,12.60
2014,04,30,05,24,12.60
2014,04,30,05,25,12.60
2014,04,30,05,26,12.60
2014,04,30,05,27,12.60
2014,04,30,05,28,12.50
2014,04,30,05,29,12.50
2014,04,30,05,30,12.50
2014,04,30,05,31,12.50
2014,04,30,05,32,12.50
2014,04,30,05,33,12.40
2014,04,30,05,34,12.40
2014,04,30,05,35,12.40
2014,04,30,05,36,12.40
2014,04,30,05,37,12.40
2014,04,30,05,38,12.40
2014,04,30,05,39,12.40
2014,04,30,05,40,12.40
2014,04,30,05,41,12.40
2014,04,30,05,42,12.40
2014,04,30,05,43,12.30
2014,04,30,05,44,12.40
2014,04,30,05,45,12.40
2014,04,30,05,46,12.40
2014,04,30,05,47,12.40
2014,04,30,05,48,12.40
2014,04,30,05,49,12.40
2014,04,30,05,50,12.40
2014,04,30,05,51,12.40
2014,04,30,05,52,12.40
2014,04,30,05,53,12.40
2014,04,30,05,54,12.40
2014,04,30,05,55,12.40
2014,04,30,05,56,12.40
2014,04,30,05,57,12.40
2014,04,30,05,58,12.40
2014,04,30,05,59,12.40
2014,04,30,06,00,12.40
2014,04,30,06,01,12.40
2014,04,30,06,02,12.40
2014,04,30,06,03,12.40
2014,04,30,06,04,12.40
2014,04,30,06,05,12.40
2014,04,30,06,06,12.40
2014,04,30,06,07,12.40
2014,04,30,06,08,12.40
2014,04,30,06,09,12.40
2014,04,30,06,10,12.40
2014,04,30,06,11,12.40
2014,04,30,06,12,12.50
2014,04,30,06,13,12.50
2014,04,30,06,14,12.50
2014,04,30,06,15,12.50
2014,04,30,06,16,12.60
2014,04,30,06,17,12.60
2014,04,30,06,18,12.70
2014,04,30,06,19,12.70
2014,04,30,06,20,12.70
2014,04,30,06,21,12.80
2014,04,30,06,22,12.80
2014,04,30,06,23,12.80
2014,04,30,06,24,12.80
2014,04,30,06,25,12.90
2014,04,30,06,26,12.90
2014,04,30,06,27,13.00
2014,04,30,06,28,13.00
2014,04,30,06,29,13.10
2014,04,30,06,30,13.10
2014,04,30,06,31,13.10
2014,04,30,06,32,13.20
2014,04,30,06,33,13.20
2014,04,30,06,34,13.20
2014,04,30,06,35,13.30
2014,04,30,06,36,13.30
2014,04,30,06,37,13.40
2014,04,30,06,38,13.40
2014,04,30,06,39,13.50
2014,04,30,06,40,13.50
2014,04,30,06,41,13.50
2014,04,30,06,42,13.60
2014,04,30,06,43,13.60
2014,04,30,06,44,13.70
2014,04,30,06,45,13.70
2014,04,30,06,46,13.70
2014,04,30,06,47,13.70
2014,04,30,06,48,13.80
2014,04,30,06,49,13.80
2014,04,30,06,50,13.90
2014,04,30,06,51,13.90
2014,04,30,06,52,14.00
2014,04,30,06,53,14.00
2014,04,30,06,54,14.00
2014,04,30,06,55,14.00
2014,04,30,06,56,14.00
2014,04,30,06,57,14.00
2014,04,30,06,58,14.00
2014,04,30,06,59,14.00
2014,04,30,07,00,14.10
2014,04,30,07,01,14.10
2014,04,30,07,02,14.10
2014,04,30,07,03,14.10
2014,04,30,07,04,14.10
2014,04,30,07,05,14.10
2014,04,30,07,06,14.20
2014,04,30,07,07,14.20
2014,04,30,07,08,14.20
2014,04,30,07,09,14.20
2014,04,30,07,10,14.20
2014,04,30,07,11,14.20
2014,04,30,07,12,14.20
2014,04,30,07,13,14.30
2014,04,30,07,14,14.30
2014,04,30,07,15,14.30
2014,04,30,07,16,14.40
2014,04,30,07,17,14.40
2014,04,30,07,18,14.40
2014,04,30,07,19,14.40
2014,04,30,07,20,14.40
2014,04,30,07,21,14.40
2014,04,30,07,22,14.50
2014,04,30,07,23,14.50
2014,04,30,07,24,14.50
2014,04,30,07,25,14.50
2014,04,30,07,26,14.50
2014,04,30,07,27,14.50
2014,04,30,07,28,14.50
2014,04,30,07,29,14.50
2014,04,30,07,30,14.50
2014,04,30,07,31,14.50
2014,04,30,07,32,14.50
2014,04,30,07,33,14.50
2014,04,30,07,34,14.50
2014,04,30,07,35,14.50
2014,04,30,07,36,14.50
2014,04,30,07,37,14.50
2014,04,30,07,38,14.60
2014,04,30,07,39,14.60
2014,04,30,07,40,14.60
2014,04,30,07,41,14.60
2014,04,30,07,42,14.70
2014,04,30,07,43,14.70
2014,04,30,07,44,14.70
2014,04,30,07,45,14.80
2014,04,30,07,46,14.80
2014,04,30,07,47,14.80
2014,04,30,07,48,14.80
2014,04,30,07,49,14.80
2014,04,30,07,50,14.80
2014,04,30,07,51,14.80
2014,04,30,07,52,14.80
2014,04,30,07,53,14.80
2014,04,30,07,54,14.80
2014,04,30,07,55,14.90
2014,04,30,07,56,14.90
2014,04,30,07,57,14.90
2014,04,30,07,58,14.90
2014,04,30,07,59,15.00
2014,04,30,08,00,15.00
2014,04,30,08,01,15.00
2014,04,30,08,02,15.00
2014,04,30,08,03,15.10
2014,04,30,08,04,15.10
2014,04,30,08,05,15.10
2014,04,30,08,06,15.10
2014,04,30,08,07,15.20
2014,04,30,08,08,15.20
2014,04,30,08,09,15.20
2014,04,30,08,10,15.20
2014,04,30,08,11,15.20
2014,04,30,08,12,15.20
2014,04,30,08,13,15.20
2014,04,30,08,14,15.20
2014,04,30,08,15,15.30
2014,04,30,08,16,15.30
2014,04,30,08,17,15.30
2014,04,30,08,18,15.30
2014,04,30,08,19,15.30
2014,04,30,08,20,15.30
2014,04,30,08,21,15.40
2014,04,30,08,22,15.40
2014,04,30,08,23,15.50
2014,04,30,08,24,15.50
2014,04,30,08,25,15.50
2014,04,30,08,26,15.50
2014,04,30,08,27,15.50
2014,04,30,08,28,15.60
2014,04,30,08,29,15.60
2014,04,30,08,30,15.60
2014,04,30,08,31,15.60
2014,04,30,08,32,15.60
2014,04,30,08,33,15.60
2014,04,30,08,34,15.70
2014,04,30,08,35,15.70
2014,04,30,08,36,15.80
2014,04,30,08,37,15.80
2014,04,30,08,38,15.80
2014,04,30,08,39,15.80
2014,04,30,08,40,15.80
2014,04,30,08,41,15.80
2014,04,30,08,42,15.80
2014,04,30,08,43,15.80
2014,04,30,08,44,15.80
2014,04,30,08,45,15.80
2014,04,30,08,46,15.80
2014,04,30,08,47,15.90
2014,04,30,08,48,15.90
2014,04,30,08,49,16.00
2014,04,30,08,50,16.10
2014,04,30,08,51,16.10
2014,04,30,08,52,16.10
2014,04,30,08,53,16.10
2014,04,30,08,54,16.20
2014,04,30,08,55,16.20
2014,04,30,08,56,16.30
2014,04,30,08,57,16.40
2014,04,30,08,58,16.40
2014,04,30,08,59,16.40
2014,04,30,09,00,16.40
2014,04,30,09,01,16.40
2014,04,30,09,02,16.40
2014,04,30,09,03,16.40
2014,04,30,09,04,16.40
2014,04,30,09,05,16.40
2014,04,30,09,06,16.40
2014,04,30,09,07,16.50
2014,04,30,09,08,16.60
2014,04,30,09,09,16.60
2014,04,30,09,10,16.60
2014,04,30,09,11,16.60
2014,04,30,09,12,16.60
2014,04,30,09,13,16.70
2014,04,30,09,14,16.60
2014,04,30,09,15,16.60
2014,04,30,09,16,16.70
2014,04,30,09,17,16.70
2014,04,30,09,18,16.70
2014,04,30,09,19,16.70
2014,04,30,09,20,16.70
2014,04,30,09,21,16.70
2014,04,30,09,22,16.80
2014,04,30,09,23,16.90
2014,04,30,09,24,16.90
2014,04,30,09,25,17.00
2014,04,30,09,26,17.00
2014,04,30,09,27,17.10
2014,04,30,09,28,17.10
2014,04,30,09,29,17.20
2014,04,30,09,30,17.20
2014,04,30,09,31,17.10
2014,04,30,09,32,17.00
2014,04,30,09,33,17.00
2014,04,30,09,34,17.00
2014,04,30,09,35,17.00
2014,04,30,09,36,16.90
2014,04,30,09,37,16.90
2014,04,30,09,38,16.90
2014,04,30,09,39,16.90
2014,04,30,09,40,17.00
2014,04,30,09,41,17.00
2014,04,30,09,42,17.10
2014,04,30,09,43,17.10
2014,04,30,09,44,17.20
2014,04,30,09,45,17.20
2014,04,30,09,46,17.20
2014,04,30,09,47,17.30
2014,04,30,09,48,17.30
2014,04,30,09,49,17.30
2014,04,30,09,50,17.30
2014,04,30,09,51,17.30
2014,04,30,09,52,17.30
2014,04,30,09,53,17.30
2014,04,30,09,54,17.30
2014,04,30,09,55,17.30
2014,04,30,09,56,17.30
2014,04,30,09,57,17.30
2014,04,30,09,58,17.40
2014,04,30,09,59,17.40
2014,04,30,10,00,17.40
2014,04,30,10,01,17.40
2014,04,30,10,02,17.50
2014,04,30,10,03,17.50
2014,04,30,10,04,17.50
2014,04,30,10,05,17.60
2014,04,30,10,06,17.60
2014,04,30,10,07,17.70
2014,04,30,10,08,17.70
2014,04,30,10,09,17.70
2014,04,30,10,10,17.80
2014,04,30,10,11,17.80
2014,04,30,10,12,17.80
2014,04,30,10,13,17.80
2014,04,30,10,14,17.80
2014,04,30,10,15,17.90
2014,04,30,10,16,17.90
2014,04,30,10,17,17.90
2014,04,30,10,18,18.00
2014,04,30,10,19,18.10
2014,04,30,10,20,18.20
2014,04,30,10,21,18.20
2014,04,30,10,22,18.30
2014,04,30,10,23,18.30
2014,04,30,10,24,18.40
2014,04,30,10,25,18.40
2014,04,30,10,26,18.50
2014,04,30,10,27,18.60
2014,04,30,10,28,18.60
2014,04,30,10,29,18.60
2014,04,30,10,30,18.70
2014,04,30,10,31,18.70
2014,04,30,10,32,18.70
2014,04,30,10,33,18.70
2014,04,30,10,34,18.80
2014,04,30,10,35,18.80
2014,04,30,10,36,18.70
2014,04,30,10,37,18.70
2014,04,30,10,38,18.70
2014,04,30,10,39,18.70
2014,04,30,10,40,18.70
2014,04,30,10,41,18.70
2014,04,30,10,42,18.80
2014,04,30,10,43,18.80
2014,04,30,10,44,18.80
2014,04,30,10,45,18.90
2014,04,30,10,46,18.90
2014,04,30,10,47,18.90
2014,04,30,10,48,18.90
2014,04,30,10,49,18.90
2014,04,30,10,50,18.90
2014,04,30,10,51,18.90
2014,04,30,10,52,18.90
2014,04,30,10,53,18.90
2014,04,30,10,54,19.00
2014,04,30,10,55,19.10
2014,04,30,10,56,19.10
2014,04,30,10,57,19.10
2014,04,30,10,58,19.10
2014,04,30,10,59,19.20
2014,04,30,11,00,19.20
2014,04,30,11,01,19.30
2014,04,30,11,02,19.40
2014,04,30,11,03,19.50
2014,04,30,11,04,19.50
2014,04,30,11,05,19.40
2014,04,30,11,06,19.40
2014,04,30,11,07,19.30
2014,04,30,11,08,19.30
2014,04,30,11,09,19.30
2014,04,30,11,10,19.30
2014,04,30,11,11,19.20
2014,04,30,11,12,19.20
2014,04,30,11,13,19.10
2014,04,30,11,14,19.10
2014,04,30,11,15,19.10
2014,04,30,11,16,19.00
2014,04,30,11,17,18.90
2014,04,30,11,18,18.90
2014,04,30,11,19,18.90
2014,04,30,11,20,18.90
2014,04,30,11,21,18.90
2014,04,30,11,22,19.00
2014,04,30,11,23,19.10
2014,04,30,11,24,19.10
2014,04,30,11,25,19.20
2014,04,30,11,26,19.30
2014,04,30,11,27,19.30
2014,04,30,11,28,19.40
2014,04,30,11,29,19.40
2014,04,30,11,30,19.50
2014,04,30,11,31,19.50
2014,04,30,11,32,19.60
2014,04,30,11,33,19.60
2014,04,30,11,34,19.70
2014,04,30,11,35,19.70
2014,04,30,11,36,19.70
2014,04,30,11,37,19.80
2014,04,30,11,38,19.80
2014,04,30,11,39,19.80
2014,04,30,11,40,19.80
2014,04,30,11,41,19.80
2014,04,30,11,42,19.80
2014,04,30,11,43,19.80
2014,04,30,11,44,19.80
2014,04,30,11,45,19.80
2014,04,30,11,46,19.90
2014,04,30,11,47,19.90
2014,04,30,11,48,19.90
2014,04,30,11,49,19.90
2014,04,30,11,50,20.10
2014,04,30,11,51,20.20
2014,04,30,11,52,20.30
2014,04,30,11,53,20.40
2014,04,30,11,54,20.50
2014,04,30,11,55,20.50
2014,04,30,11,56,20.50
2014,04,30,11,57,20.50
2014,04,30,11,58,20.50
2014,04,30,11,59,20.40
2014,04,30,12,00,20.40
2014,04,30,12,01,20.30
2014,04,30,12,02,20.20
2014,04,30,12,03,20.20
2014,04,30,12,04,20.30
2014,04,30,12,05,20.30
2014,04,30,12,06,20.30
2014,04,30,12,07,20.40
2014,04,30,12,08,20.40
2014,04,30,12,09,20.40
2014,04,30,12,10,20.40
2014,04,30,12,11,20.40
2014,04,30,12,12,20.30
2014,04,30,12,13,20.30
2014,04,30,12,14,20.30
2014,04,30,12,15,20.30
2014,04,30,12,16,20.20
2014,04,30,12,17,20.20
2014,04,30,12,18,20.20
2014,04,30,12,19,20.20
2014,04,30,12,20,20.20
2014,04,30,12,21,20.20
2014,04,30,12,22,20.20
2014,04,30,12,23,20.20
2014,04,30,12,24,20.20
2014,04,30,12,25,20.20
2014,04,30,12,26,20.20
2014,04,30,12,27,20.20
2014,04,30,12,28,20.30
2014,04,30,12,29,20.40
2014,04,30,12,30,20.50
2014,04,30,12,31,20.60
2014,04,30,12,32,20.70
2014,04,30,12,33,20.70
2014,04,30,12,34,20.80
2014,04,30,12,35,20.90
2014,04,30,12,36,21.00
2014,04,30,12,37,21.10
2014,04,30,12,38,21.20
2014,04,30,12,39,21.20
2014,04,30,12,40,21.30
2014,04,30,12,41,21.30
2014,04,30,12,42,21.30
2014,04,30,12,43,21.30
2014,04,30,12,44,21.30
2014,04,30,12,45,21.30
2014,04,30,12,46,21.30
2014,04,30,12,47,21.30
2014,04,30,12,48,21.30
2014,04,30,12,49,21.30
2014,04,30,12,50,21.40
2014,04,30,12,51,21.40
2014,04,30,12,52,21.50
2014,04,30,12,53,21.60
2014,04,30,12,54,21.60
2014,04,30,12,55,21.60
2014,04,30,12,56,21.60
2014,04,30,12,57,21.60
2014,04,30,12,58,21.60
2014,04,30,12,59,21.60
2014,04,30,13,00,21.60
2014,04,30,13,01,21.60
2014,04,30,13,02,21.60
2014,04,30,13,03,21.80
2014,04,30,13,04,21.80
2014,04,30,13,05,21.80
2014,04,30,13,06,21.80
2014,04,30,13,07,21.80
2014,04,30,13,08,21.80
2014,04,30,13,09,21.80
2014,04,30,13,10,21.80
2014,04,30,13,11,21.80
2014,04,30,13,12,21.90
2014,04,30,13,13,21.90
2014,04,30,13,14,22.00
2014,04,30,13,15,22.00
2014,04,30,13,16,22.00
2014,04,30,13,17,22.00
2014,04,30,13,18,22.10
2014,04,30,13,19,22.20
2014,04,30,13,20,22.20
2014,04,30,13,21,22.20
2014,04,30,13,22,22.30
2014,04,30,13,23,22.30
2014,04,30,13,24,22.30
2014,04,30,13,25,22.40
2014,04,30,13,26,22.50
2014,04,30,13,27,22.60
2014,04,30,13,28,22.70
2014,04,30,13,29,22.70
2014,04,30,13,30,22.80
2014,04,30,13,31,22.90
2014,04,30,13,32,22.90
2014,04,30,13,33,22.90
2014,04,30,13,34,22.90
2014,04,30,13,35,22.90
2014,04,30,13,36,22.90
2014,04,30,13,37,22.90
2014,04,30,13,38,22.90
2014,04,30,13,39,22.90
2014,04,30,13,40,22.90
2014,04,30,13,41,22.90
2014,04,30,13,42,22.90
2014,04,30,13,43,22.90
2014,04,30,13,44,22.90
2014,04,30,13,45,23.10
2014,04,30,13,46,23.10
2014,04,30,13,47,23.20
2014,04,30,13,48,23.30
2014,04,30,13,49,23.40
2014,04,30,13,50,23.40
2014,04,30,13,51,23.60
2014,04,30,13,52,23.60
2014,04,30,13,53,23.70
2014,04,30,13,54,23.70
2014,04,30,13,55,23.80
2014,04,30,13,56,23.80
2014,04,30,13,57,23.70
2014,04,30,13,58,23.70
2014,04,30,13,59,23.70
2014,04,30,14,00,23.70
2014,04,30,14,01,23.70
2014,04,30,14,02,23.70
2014,04,30,14,03,23.70
2014,04,30,14,04,23.70
2014,04,30,14,05,23.70
2014,04,30,14,06,23.70
2014,04,30,14,07,23.70
2014,04,30,14,23,23.70
2014,04,30,14,24,23.70
2014,04,30,14,25,23.70
2014,04,30,14,26,23.70
2014,04,30,14,27,23.70
2014,04,30,14,28,23.60
2014,04,30,14,29,23.70
2014,04,30,14,30,23.70
2014,04,30,14,31,23.70
2014,04,30,14,32,23.70
2014,04,30,14,33,23.70
2014,04,30,14,34,23.70
2014,04,30,14,35,23.70
2014,04,30,14,36,23.70
2014,04,30,14,37,23.70
2014,04,30,14,38,23.70
2014,04,30,14,39,23.70
2014,04,30,14,40,23.70
2014,04,30,14,41,23.70
2014,04,30,14,42,23.70
2014,04,30,14,43,23.70
2014,04,30,14,44,23.70
2014,04,30,14,45,23.70
2014,04,30,14,46,23.70
2014,04,30,14,47,23.70
2014,04,30,14,48,23.70
2014,04,30,14,49,23.70
2014,04,30,14,50,23.70
2014,04,30,14,51,23.90
2014,04,30,14,52,24.00
2014,04,30,14,53,24.10
2014,04,30,14,54,24.10
2014,04,30,14,55,24.20
2014,04,30,14,56,24.20
2014,04,30,14,57,24.20
2014,04,30,14,58,24.20
2014,04,30,14,59,24.30
2014,04,30,15,00,24.30
2014,04,30,15,01,24.30
2014,04,30,15,02,24.20
2014,04,30,15,03,24.20
2014,04,30,15,04,24.20
2014,04,30,15,05,24.20
2014,04,30,15,06,24.20
2014,04,30,15,07,24.30
2014,04,30,15,08,24.30
2014,04,30,15,09,24.30
2014,04,30,15,10,24.40
2014,04,30,15,11,24.50
2014,04,30,15,12,24.50
2014,04,30,15,13,24.50
2014,04,30,15,14,24.60
2014,04,30,15,15,24.60
2014,04,30,15,16,24.50
2014,04,30,15,17,24.40
2014,04,30,15,18,24.40
2014,04,30,15,19,24.30
2014,04,30,15,20,24.10
2014,04,30,15,21,24.10
2014,04,30,15,22,24.10
2014,04,30,15,23,24.10
2014,04,30,15,24,24.10
2014,04,30,15,25,24.10
2014,04,30,15,26,24.10
2014,04,30,15,27,24.10
2014,04,30,15,28,24.10
2014,04,30,15,29,24.10
2014,04,30,15,30,24.10
2014,04,30,15,31,24.10
2014,04,30,15,32,24.10
2014,04,30,15,33,24.20
2014,04,30,15,34,24.20
2014,04,30,15,35,24.30
2014,04,30,15,36,24.30
2014,04,30,15,37,24.40
2014,04,30,15,38,24.40
2014,04,30,15,39,24.50
2014,04,30,15,40,24.50
2014,04,30,15,41,24.60
2014,04,30,15,42,24.70
2014,04,30,15,43,24.80
2014,04,30,15,44,24.80
2014,04,30,15,45,24.80
2014,04,30,15,46,24.70
2014,04,30,15,47,24.70
2014,04,30,15,48,24.70
2014,04,30,15,49,24.70
2014,04,30,15,50,24.70
2014,04,30,15,51,24.70
2014,04,30,15,52,24.70
2014,04,30,15,53,24.70
2014,04,30,15,54,24.70
2014,04,30,15,55,24.80
2014,04,30,15,56,24.80
2014,04,30,15,57,24.90
2014,04,30,15,58,25.00
2014,04,30,15,59,25.00
2014,04,30,16,00,25.00
2014,04,30,16,01,25.10
2014,04,30,16,02,25.10
2014,04,30,16,03,25.20
2014,04,30,16,04,25.20
2014,04,30,16,05,25.20
2014,04,30,16,06,25.20
2014,04,30,16,07,25.20
2014,04,30,16,08,25.20
2014,04,30,16,09,25.20
2014,04,30,16,10,25.20
2014,04,30,16,11,25.30
2014,04,30,16,12,25.30
2014,04,30,16,13,25.30
2014,04,30,16,14,25.40
2014,04,30,16,15,25.40
2014,04,30,16,16,25.50
2014,04,30,16,17,25.50
2014,04,30,16,18,25.50
2014,04,30,16,19,25.50
2014,04,30,16,20,25.50
2014,04,30,16,21,25.50
2014,04,30,16,22,25.40
2014,04,30,16,23,25.40
2014,04,30,16,24,25.30
2014,04,30,16,25,25.20
2014,04,30,16,26,25.10
2014,04,30,16,27,25.10
2014,04,30,16,28,25.00
2014,04,30,16,29,25.00
2014,04,30,16,30,24.90
2014,04,30,16,31,24.80
2014,04,30,16,32,24.80
2014,04,30,16,33,24.80
2014,04,30,16,34,24.90
2014,04,30,16,35,25.00
2014,04,30,16,36,25.10
2014,04,30,16,37,25.10
2014,04,30,16,38,25.10
2014,04,30,16,39,25.10
2014,04,30,16,40,25.00
2014,04,30,16,41,24.90
2014,04,30,16,42,24.80
2014,04,30,16,43,24.80
2014,04,30,16,44,24.70
2014,04,30,16,45,24.70
2014,04,30,16,46,24.60
2014,04,30,16,47,24.70
2014,04,30,16,48,24.70
2014,04,30,16,49,24.70
2014,04,30,16,50,24.70
2014,04,30,16,51,24.80
2014,04,30,16,52,24.80
2014,04,30,16,53,24.90
2014,04,30,16,54,24.90
2014,04,30,16,55,24.90
2014,04,30,16,56,24.90
2014,04,30,16,57,24.80
2014,04,30,16,58,24.80
2014,04,30,16,59,24.70
2014,04,30,17,00,24.80
2014,04,30,17,01,24.90
2014,04,30,17,02,24.90
2014,04,30,17,03,24.90
2014,04,30,17,04,24.80
2014,04,30,17,05,24.80
2014,04,30,17,06,24.80
2014,04,30,17,07,24.90
2014,04,30,17,08,24.90
2014,04,30,17,09,25.00
2014,04,30,17,10,25.00
2014,04,30,17,11,25.10
2014,04,30,17,12,25.10
2014,04,30,17,13,25.10
2014,04,30,17,14,25.10
2014,04,30,17,15,25.10
2014,04,30,17,16,25.00
2014,04,30,17,17,25.00
2014,04,30,17,18,24.90
2014,04,30,17,19,24.90
2014,04,30,17,20,24.90
2014,04,30,17,21,24.90
2014,04,30,17,22,24.90
2014,04,30,17,23,24.80
2014,04,30,17,24,24.70
2014,04,30,17,25,24.70
2014,04,30,17,26,24.70
2014,04,30,17,27,24.70
2014,04,30,17,28,24.70
2014,04,30,17,29,24.70
2014,04,30,17,30,24.70
2014,04,30,17,31,24.80
2014,04,30,17,32,24.80
2014,04,30,17,33,24.80
2014,04,30,17,34,24.80